Newport Weather Center

Moon Phase Calendar



Online Cameras

 


      

Current Conditions in Newport
11/28/2020 5:11:11 PM

46°F
Feels Like 42
Clouds
Humidity
93%
Pressure
30.33"
Wind
5.8 mph (E)
Dew Point
45°F
UV Index
0/10 (Low)
Visibility
6 mi

Hourly Forecast

Date & Time Sat, Nov 28
5:00 PM
Sat, Nov 28
6:00 PM
Sat, Nov 28
7:00 PM
Sat, Nov 28
8:00 PM
Sat, Nov 28
9:00 PM
Sat, Nov 28
10:00 PM
Sat, Nov 28
11:00 PM
Sun, Nov 29
12:00 AM
Sun, Nov 29
1:00 AM
Sun, Nov 29
2:00 AM
Sun, Nov 29
3:00 AM
Sun, Nov 29
4:00 AM
Sun, Nov 29
5:00 AM
Sun, Nov 29
6:00 AM
Sun, Nov 29
7:00 AM
Sun, Nov 29
8:00 AM
Sun, Nov 29
9:00 AM
Sun, Nov 29
10:00 AM
Sun, Nov 29
11:00 AM
Sun, Nov 29
12:00 PM
Sun, Nov 29
1:00 PM
Sun, Nov 29
2:00 PM
Sun, Nov 29
3:00 PM
Sun, Nov 29
4:00 PM
Sun, Nov 29
5:00 PM
Sun, Nov 29
6:00 PM
Sun, Nov 29
7:00 PM
Sun, Nov 29
8:00 PM
Sun, Nov 29
9:00 PM
Sun, Nov 29
10:00 PM
Sun, Nov 29
11:00 PM
Mon, Nov 30
12:00 AM
Mon, Nov 30
1:00 AM
Mon, Nov 30
2:00 AM
Mon, Nov 30
3:00 AM
Mon, Nov 30
4:00 AM
Mon, Nov 30
5:00 AM
Mon, Nov 30
6:00 AM
Mon, Nov 30
7:00 AM
Mon, Nov 30
8:00 AM
Mon, Nov 30
9:00 AM
Mon, Nov 30
10:00 AM
Mon, Nov 30
11:00 AM
Mon, Nov 30
12:00 PM
Mon, Nov 30
1:00 PM
Mon, Nov 30
2:00 PM
Mon, Nov 30
3:00 PM
Mon, Nov 30
4:00 PM
Condition
Clouds

Clouds

Clouds

Clouds

Clouds

Clouds

Clear

Clear

Clear

Clear

Clear

Clear

Clear

Clear

Clear

Clear

Clear

Clear

Clear

Clear

Clear

Clear

Clear

Clear

Clear

Clear

Clear

Clear

Clouds

Rain

Rain

Rain

Rain

Rain

Rain

Rain

Rain

Rain

Clouds

Clouds

Clouds

Clouds

Clear

Clear

Clear

Clear

Clear

Clear
Temperature 46°F47°F46°F45°F44°F44°F44°F43°F43°F43°F43°F43°F43°F42°F42°F43°F45°F48°F51°F53°F54°F54°F53°F50°F48°F47°F46°F46°F46°F47°F49°F49°F50°F50°F49°F50°F50°F49°F49°F48°F49°F51°F51°F52°F52°F51°F51°F49°F
Feels Like 43°F43°F41°F40°F39°F38°F37°F37°F36°F37°F37°F37°F37°F36°F36°F36°F39°F42°F45°F48°F49°F48°F47°F44°F41°F40°F39°F38°F37°F38°F39°F39°F38°F39°F41°F43°F42°F41°F41°F40°F42°F43°F43°F43°F43°F43°F43°F43°F
Cloudiness 90%71%48%33%24%19%0%0%0%0%0%0%0%0%0%0%0%0%0%0%0%0%5%4%0%0%0%0%20%32%100%100%100%100%100%100%98%73%50%37%34%38%0%0%0%0%8%7%
Visibility 6 mi6 mi6 mi6 mi6 mi6 mi6 mi6 mi6 mi6 mi6 mi6 mi6 mi6 mi6 mi6 mi6 mi6 mi6 mi6 mi6 mi6 mi6 mi6 mi6 mi6 mi6 mi6 mi6 mi6 mi6 mi6 mi5 mi2 mi6 mi6 mi6 mi6 mi6 mi6 mi6 mi6 mi6 mi6 mi6 mi6 mi6 mi6 mi
Precipitation 0%0%0%0%0%0%0%0%0%0%0%0%0%0%0%0%0%0%0%0%0%0%0%0%0%0%0%0%3%31%56%64%86%94%100%100%77%66%61%61%61%57%23%30%35%31%26%26%
Humidity 93%89%88%87%86%83%80%80%79%79%79%79%80%80%80%80%75%71%67%64%63%63%67%73%77%79%80%80%80%79%77%79%86%92%87%85%81%81%80%78%76%74%71%69%68%68%69%73%
Dew Point 45°F43°F42°F41°F40°F40°F38°F38°F37°F37°F37°F37°F37°F37°F37°F37°F38°F39°F40°F41°F41°F42°F42°F42°F41°F40°F40°F40°F40°F41°F42°F43°F46°F48°F46°F46°F45°F44°F43°F42°F42°F43°F42°F42°F42°F41°F41°F41°F
Pressure 30.33"30.33"30.3"30.3"30.3"30.3"30.27"30.27"30.27"30.24"30.24"30.24"30.21"30.21"30.21"30.21"30.21"30.21"30.18"30.18"30.15"30.12"30.12"30.12"30.12"30.09"30.09"30.09"30.09"30.06"30.03"30"30"30.03"30.06"30.12"30.15"30.18"30.21"30.24"30.27"30.33"30.36"30.36"30.36"30.39"30.39"30.42"
Wind Speed 4.5 mph4.4 mph4.2 mph5.5 mph5.9 mph7 mph7.1 mph6.1 mph7 mph6.5 mph7.1 mph6.6 mph6.1 mph5.8 mph6.3 mph6.5 mph6.6 mph5.9 mph5.6 mph4.6 mph5.1 mph6.1 mph7.4 mph8.2 mph8.5 mph8.3 mph9 mph10 mph11.4 mph12.3 mph14 mph15.7 mph19.5 mph18.9 mph11.8 mph10.8 mph12 mph11.8 mph11 mph10.7 mph10.3 mph10.9 mph11.2 mph12.2 mph12.4 mph11.2 mph9.8 mph8.5 mph
Wind
Direction
73°
ENE
82°
E
79°
E
91°
E
101°
E
104°
ESE
106°
ESE
99°
E
100°
E
103°
ESE
101°
E
106°
ESE
105°
ESE
109°
ESE
114°
ESE
117°
ESE
122°
ESE
132°
SE
145°
SE
161°
SSE
170°
S
189°
S
190°
S
191°
S
169°
S
157°
SSE
162°
SSE
158°
SSE
155°
SSE
163°
SSE
164°
SSE
174°
S
186°
S
252°
WSW
251°
WSW
253°
WSW
265°
W
283°
WNW
282°
WNW
282°
WNW
281°
W
280°
W
281°
W
284°
WNW
293°
WNW
303°
WNW
309°
NW
318°
NW

Daily Forecast

Date High Low Precip. Humidity
Today
Nov 28

Clouds
52 °F
43 °F
18%
79%
Sunday
Nov 29

Rain
54 °F
42 °F
56%
64%
Monday
Nov 30

Rain
52 °F
43 °F
100%
68%
Tuesday
Dec 1

Clear
49 °F
40 °F
0%
56%
Wednesday
Dec 2

Clear
50 °F
38 °F
0%
54%
Thursday
Dec 3

Clouds
49 °F
38 °F
0%
55%
Friday
Dec 4

Clear
51 °F
39 °F
0%
56%
Saturday
Dec 5

Rain
53 °F
40 °F
100%
58%
Sunday
Dec 6

Rain
52 °F
46 °F
63%
85%
Monday
Dec 7

Clouds
56 °F
47 °F
0%
66%
Tuesday
Dec 8

Clouds
57 °F
48 °F
0%
66%
Wednesday
Dec 9

Rain
57 °F
49 °F
47%
78%
Thursday
Dec 10

Rain
52 °F
43 °F
86%
69%
Friday
Dec 11

Clear
48 °F
38 °F
0%
52%
Saturday
Dec 12

Clear
46 °F
35 °F
0%
56%
Sunday
Dec 13

Rain
47 °F
40 °F
88%
62%


Temperature 8-14 Day Outlook



Precipitation 8-14 Day Outlook




Quick Links
Newport News
Newport Photos
Newport Videos




About Us
Contact Us
Site Map
Search Site
Advertise With Us
   
NewportOR.USCoast.info
THE NEWPORT WEBSITE

Copyright 2020, Coastal Town
Privacy    |    Legal